FW4608 Weather Reports


time (UTC)temp
C
wind
direction
speed
KPH
gust
KPH
rain 1hr
cm
rain 24hr
cm
rain mn
cm
humidity
%
barometer
mb
20260505040016 16 10 0.0 0.0 0.00 0.00 0.00 86 1016.8
20260505035512 16 10 0.0 0.0 0.00 0.00 0.00 86 1016.8
20260505035010 16 10 0.0 0.0 0.00 0.00 0.00 86 1016.8
20260505034514 16 10 0.0 0.0 0.00 0.00 0.00 85 1016.7
20260505034011 16 10 0.0 0.0 0.00 0.00 0.00 85 1016.8
20260505033513 16 10 0.0 0.0 0.00 0.00 0.00 85 1016.9
20260505033010 16 10 0.0 0.0 0.00 0.00 0.00 85 1016.8
20260505032506 16 10 0.0 0.0 0.00 0.00 0.00 84 1016.8
20260505032005 16 10 0.0 0.0 0.00 0.00 0.00 84 1016.9
20260505031505 17 10 0.0 0.0 0.00 0.00 0.00 84 1016.9
20260505031005 17 10 0.0 0.0 0.00 0.00 0.00 84 1016.9
20260505030504 17 10 0.0 0.0 0.00 0.00 0.00 84 1016.8
20260505030004 17 10 0.0 0.0 0.00 0.00 0.00 84 1016.7
20260505025507 17 10 0.0 0.0 0.00 0.00 0.00 83 1016.6
20260505025118 17 10 0.0 0.0 0.00 0.00 0.00 83 1016.6
20260505024608 17 10 0.0 1.6 0.00 0.00 0.00 83 1016.5
20260505024059 17 357 0.0 1.6 0.00 0.00 0.00 83 1016.4
20260505023559 17 5 0.0 1.6 0.00 0.00 0.00 83 1016.4
20260505023059 17 5 0.0 1.6 0.00 0.00 0.00 83 1016.5
20260505022557 17 5 0.0 0.0 0.00 0.00 0.00 83 1016.5
20260505022502 17 5 0.0 0.0 0.00 0.00 0.00 83 1016.5
20260505022056 17 6 0.0 0.0 0.00 0.00 0.00 82 1016.6
20260505021556 17 5 0.0 0.0 0.00 0.00 0.00 82 1016.7
20260505021058 17 5 0.0 0.0 0.00 0.00 0.00 82 1016.6
20260505020555 17 6 0.0 0.0 0.00 0.00 0.00 81 1016.6
20260505015553 18 5 0.0 1.6 0.00 0.00 0.00 79 1016.7
20260505015502 18 5 0.0 1.6 0.00 0.00 0.00 80 1016.7
20260505015056 18 5 0.0 1.6 0.00 0.00 0.00 79 1016.7
20260505014555 18 5 0.0 0.0 0.00 0.00 0.00 79 1016.6
20260505014052 18 5 0.0 1.6 0.00 0.00 0.00 78 1016.8
20260505013551 18 5 0.0 1.6 0.00 0.00 0.00 78 1016.7
20260505013153 18 157 0.0 0.0 0.00 0.00 0.00 78 1016.7
20260505012549 19 151 0.0 1.6 0.00 0.00 0.00 77 1016.6
20260505012051 19 151 0.0 1.6 0.00 0.00 0.00 77 1016.7
20260505011553 19 139 0.0 1.6 0.00 0.00 0.00 76 1016.7
20260505011046 19 139 0.0 3.2 0.00 0.00 0.00 76 1016.7
20260505010544 20 223 0.0 3.2 0.00 0.00 0.00 76 1016.6
20260505010058 20 340 0.0 1.6 0.00 0.00 0.00 75 1016.4
20260505005043 20 285 0.0 1.6 0.00 0.00 0.00 74 1016.5
20260505004541 20 235 0.0 1.6 0.00 0.00 0.00 74 1016.4
20260505004039 20 348 0.0 8.0 0.00 0.00 0.00 74 1016.4
20260505003538 20 115 0.0 8.0 0.00 0.00 0.00 74 1016.4
20260505003041 20 276 0.0 3.2 0.00 0.00 0.00 74 1016.4
20260505002538 20 333 0.0 3.2 0.00 0.00 0.00 73 1016.4
20260505002039 21 356 0.0 3.2 0.00 0.00 0.00 73 1016.3
20260505001538 21 316 0.0 3.2 0.00 0.00 0.00 72 1016.3
20260505001037 21 159 0.0 3.2 0.00 0.00 0.00 71 1016.3
20260505000537 21 156 0.0 4.8 0.00 0.00 0.00 71 1016.2
20260505000044 21 233 1.6 4.8 0.00 0.00 0.00 71 1016.1
20260504235534 21 135 0.0 4.8 0.00 0.00 0.00 70 1016.1
20260504235033 21 143 0.0 6.4 0.00 0.00 0.00 70 1016.0
20260504234535 21 210 0.0 8.0 0.00 0.00 0.00 69 1016.0
20260504234031 22 11 0.0 9.7 0.00 0.00 0.00 69 1015.8
20260504233530 22 129 1.6 12.9 0.00 0.00 0.00 68 1015.8
20260504233030 22 102 1.6 12.9 0.00 0.00 0.00 67 1015.8
20260504232532 22 276 1.6 19.3 0.00 0.00 0.00 67 1015.8
20260504232029 22 204 1.6 19.3 0.00 0.00 0.00 66 1015.8
20260504231530 23 13 1.6 6.4 0.00 0.00 0.00 65 1015.7
20260504231029 23 190 0.0 6.4 0.00 0.00 0.00 64 1015.5
20260504230534 23 300 0.0 4.8 0.00 0.00 0.00 63 1015.5
20260504230025 24 93 0.0 4.8 0.00 0.00 0.00 63 1015.5
20260504225526 23 80 0.0 8.0 0.00 0.00 0.00 64 1015.6
20260504225030 23 96 1.6 11.3 0.00 0.00 0.00 64 1015.6
20260504224524 23 62 1.6 11.3 0.00 0.00 0.00 64 1015.6
20260504224023 23 105 1.6 8.0 0.00 0.00 0.00 64 1015.6
20260504223524 23 252 0.0 9.7 0.00 0.00 0.00 64 1015.6
20260504223022 24 341 1.6 9.7 0.00 0.00 0.00 63 1015.7
20260504222521 24 18 1.6 6.4 0.00 0.00 0.00 63 1015.6
20260504222019 24 89 0.0 8.0 0.00 0.00 0.00 64 1015.8
20260504221520 24 98 0.0 8.0 0.00 0.00 0.00 62 1015.9
20260504221020 25 286 1.6 6.4 0.00 0.00 0.00 63 1015.9
20260504220520 25 75 0.0 8.0 0.00 0.00 0.00 61 1015.8
20260504220018 25 99 1.6 8.0 0.00 0.00 0.00 59 1015.8
20260504215515 25 266 0.0 6.4 0.00 0.00 0.00 60 1015.8
20260504215016 25 250 0.0 8.0 0.00 0.00 0.00 60 1015.6
20260504214514 25 244 3.2 11.3 0.00 0.00 0.00 58 1015.7
20260504214020 26 326 1.6 11.3 0.00 0.00 0.00 57 1015.5
20260504213512 26 134 0.0 6.4 0.00 0.00 0.00 58 1015.8
20260504213017 26 304 0.0 6.4 0.00 0.00 0.00 58 1015.7
20260504212511 26 129 0.0 8.0 0.00 0.00 0.00 60 1015.8
20260504212009 25 158 1.6 8.0 0.00 0.00 0.00 58 1016.1
20260504211507 25 145 0.0 6.4 0.00 0.00 0.00 58 1016.0
20260504211007 25 157 0.0 9.7 0.00 0.00 0.00 57 1015.9
20260504210507 25 239 0.0 6.4 0.00 0.00 0.00 57 1016.0
20260504210011 26 108 1.6 6.4 0.00 0.00 0.00 54 1016.1
20260504205509 26 243 0.0 11.3 0.00 0.00 0.00 56 1016.1
20260504205002 26 207 1.6 8.0 0.00 0.00 0.00 55 1016.2
20260504204504 27 100 0.0 8.0 0.00 0.00 0.00 54 1016.1
20260504204003 26 145 1.6 8.0 0.00 0.00 0.00 56 1016.2
20260504203506 26 117 0.0 8.0 0.00 0.00 0.00 54 1016.1
20260504203110 26 296 0.0 8.0 0.00 0.00 0.00 51 1016.1
20260504202600 27 309 1.6 8.0 0.00 0.00 0.00 52 1016.2
20260504202001 26 65 1.6 11.3 0.00 0.00 0.00 53 1016.2
20260504201600 27 319 3.2 11.3 0.00 0.00 0.00 52 1016.2
20260504201506 27 136 1.6 11.3 0.00 0.00 0.00 54 1016.1
20260504201102 27 161 1.6 6.4 0.00 0.00 0.00 52 1016.2
20260504200612 27 30 1.6 6.4 0.00 0.00 0.00 51 1016.2
20260504200058 26 129 1.6 11.3 0.00 0.00 0.00 52 1016.2
20260504195556 27 157 3.2 11.3 0.00 0.00 0.00 52 1016.4
20260504195053 26 18 1.6 9.7 0.00 0.00 0.00 50 1016.4
20260504194601 27 83 1.6 8.0 0.00 0.00 0.00 51 1016.3
20260504194051 27 83 0.0 8.0 0.00 0.00 0.00 51 1016.6
20260504193550 27 225 3.2 9.7 0.00 0.00 0.00 50 1016.5
20260504193049 27 268 1.6 11.3 0.00 0.00 0.00 50 1016.6
20260504192043 28 110 3.2 9.7 0.00 0.00 0.00 49 1016.7
20260504191545 28 241 1.6 11.3 0.00 0.00 0.00 47 1016.5
20260504191042 28 278 1.6 11.3 0.00 0.00 0.00 49 1016.7
20260504190542 28 122 0.0 8.0 0.00 0.00 0.00 49 1016.7
20260504190042 28 109 1.6 6.4 0.00 0.00 0.00 47 1016.7
20260504185534 28 311 0.0 9.7 0.00 0.00 0.00 48 1016.9
20260504185029 28 119 0.0 9.7 0.00 0.00 0.00 50 1016.9
20260504184629 28 229 3.2 9.7 0.00 0.00 0.00 47 1017.0
20260504184029 27 323 1.6 9.7 0.00 0.00 0.00 47 1017.0
20260504183525 27 279 3.2 8.0 0.00 0.00 0.00 45 1017.0
20260504183033 27 101 1.6 6.4 0.00 0.00 0.00 44 1017.1
20260504182531 28 281 1.6 6.4 0.00 0.00 0.00 42 1017.1
20260504182026 28 91 1.6 9.7 0.00 0.00 0.00 44 1017.2
20260504181525 27 323 1.6 9.7 0.00 0.00 0.00 43 1017.2
20260504181024 27 333 1.6 9.7 0.00 0.00 0.00 45 1017.2
20260504180523 28 290 1.6 9.7 0.00 0.00 0.00 46 1017.1
20260504180020 28 160 0.0 9.7 0.00 0.00 0.00 46 1017.2
20260504175520 27 202 0.0 6.4 0.00 0.00 0.00 45 1017.1
20260504175018 27 91 0.0 14.5 0.00 0.00 0.00 42 1017.1
20260504174014 28 149 0.0 9.7 0.00 0.00 0.00 46 1017.3
20260504173511 28 317 1.6 9.7 0.00 0.00 0.00 46 1017.4
20260504173009 27 44 0.0 8.0 0.00 0.00 0.00 46 1017.4
20260504172507 27 219 0.0 8.0 0.00 0.00 0.00 45 1017.4
20260504172007 27 316 1.6 9.7 0.00 0.00 0.00 44 1017.4
20260504171508 27 88 0.0 6.4 0.00 0.00 0.00 46 1017.4
20260504171005 27 284 1.6 8.0 0.00 0.00 0.00 42 1017.4
20260504170505 27 75 1.6 8.0 0.00 0.00 0.00 44 1017.5
20260504151036 26 239 1.6 6.4 0.00 0.00 0.00 48 1018.3
20260504150537 25 204 0.0 4.8 0.00 0.00 0.00 47 1018.3
20260504141051 23 333 0.0 4.8 0.00 0.00 0.00 55 1018.4
20260504140552 22 331 0.0 3.2 0.00 0.00 0.00 56 1018.5
20260504130504 18 15 0.0 3.2 0.00 0.00 0.00 77 1018.4
20260504110553 12 359 0.0 0.0 0.00 0.00 0.00 93 1017.5
20260504100529 12 359 0.0 0.0 0.00 0.00 0.00 93 1017.2
20260504081507 12 359 0.0 0.0 0.00 0.00 0.00 92 1017.4
20260504081007 12 359 0.0 0.0 0.00 0.00 0.00 92 1017.4
20260504080505 12 359 0.0 0.0 0.00 0.00 0.00 92 1017.4
20260504050530 13 359 0.0 0.0 0.00 0.00 0.00 90 1018.4
20260504045126 13 359 0.0 0.0 0.00 0.00 0.00 89 1018.6
20260504044035 13 359 0.0 0.0 0.00 0.00 0.00 89 1018.5
20260504043523 13 359 0.0 0.0 0.00 0.00 0.00 89 1018.5
20260504043024 13 359 0.0 0.0 0.00 0.00 0.00 89 1018.5
20260504042519 13 359 0.0 0.0 0.00 0.00 0.00 89 1018.5
20260504042018 13 359 0.0 0.0 0.00 0.00 0.00 89 1018.5
20260504041515 13 359 0.0 0.0 0.00 0.00 0.00 88 1018.4
20260504041014 13 359 0.0 0.0 0.00 0.00 0.00 88 1018.5
20260504040512 13 359 0.0 0.0 0.00 0.00 0.00 88 1018.5